This is the latest recevied weather packets stored in our database for station/object W7PLC. If no packets are shown the sender has not sent any weather packets the latest 10 day(s).
| Time | Temp. | Humidity | Pressure | Rain* | Wind** | Luminosity | Snow |
|---|---|---|---|---|---|---|---|
| 1777967797 | 11.11° C | 97% | 1011.7 hPa | 0 mm | - | 0 W/m² | - |
| 1777967494 | 11.11° C | 96% | 1011.6 hPa | 0 mm | - | 0 W/m² | - |
| 1777966888 | 10.56° C | 96% | 1011.6 hPa | 0 mm | - | 0 W/m² | - |
| 1777966586 | 10.56° C | 96% | 1011.5 hPa | 0 mm | - | 0 W/m² | - |
| 1777966284 | 11.11° C | 96% | 1011.4 hPa | 0 mm | - | 0 W/m² | - |
| 1777965979 | 11.11° C | 95% | 1011.3 hPa | 0 mm | - | 0 W/m² | - |
| 1777965676 | 11.11° C | 95% | 1011.2 hPa | 0 mm | - | 0 W/m² | - |
| 1777965371 | 11.11° C | 95% | 1011.1 hPa | 0 mm | - | 0 W/m² | - |
| 1777965069 | 11.11° C | 94% | 1011.3 hPa | 0 mm | - | 0 W/m² | - |
| 1777964766 | 11.11° C | 95% | 1011.1 hPa | 0 mm | - | 0 W/m² | - |
| 1777964462 | 11.67° C | 95% | 1010.9 hPa | 0 mm | - | 0 W/m² | - |
| 1777964158 | 11.11° C | 95% | 1010.9 hPa | 0 mm | - | 0 W/m² | - |
| 1777963855 | 11.67° C | 94% | 1010.7 hPa | 0 mm | - | 0 W/m² | - |
| 1777963552 | 11.67° C | 94% | 1010.9 hPa | 0 mm | - | 0 W/m² | - |
| 1777963251 | 11.67° C | 94% | 1010.4 hPa | 0 mm | - | 0 W/m² | - |
| 1777962947 | 11.67° C | 94% | 1010.6 hPa | 0 mm | - | 0 W/m² | - |
| 1777962643 | 11.67° C | 93% | 1010.7 hPa | 0 mm | - | 0 W/m² | - |
| 1777962340 | 11.67° C | 92% | 1010.7 hPa | 0 mm | - | 0 W/m² | - |
| 1777962037 | 12.22° C | 92% | 1010.5 hPa | 0 mm | - | 0 W/m² | - |
| 1777961735 | 12.22° C | 92% | 1010.3 hPa | 0 mm | - | 0 W/m² | - |
| 1777961432 | 12.22° C | 91% | 1010.3 hPa | 0 mm | - | 0 W/m² | - |
| 1777961130 | 12.22° C | 91% | 1010.5 hPa | 0 mm | - | 0 W/m² | - |
| 1777960826 | 12.22° C | 91% | 1010.5 hPa | 0 mm | - | 0 W/m² | - |
| 1777960521 | 12.22° C | 90% | 1010.4 hPa | 0 mm | - | 0 W/m² | - |
| 1777960218 | 12.78° C | 90% | 1010.4 hPa | 0 mm | - | 0 W/m² | - |
* Rain latest hour (hover to see other rain measurements)
** Current wind speed in m/s (hover to see current wind gust speed)